User: anonymous   Login
Location: Unspecified
(0.0000°N, 0.0000°E)
Time: 06:06:21
(UTC+00:00)
Language:

OFEQ 11 - Orbit

View from above orbital plane
View from above orbital plane
View from above satellite
View from above satellite

Ground track
Ground track

The orbit data is extracted from the following two-line orbital elements,

1 41759U 16056A   18166.83930506 0.00000000  00000-0  00000-0 0    03
2 41759 141.9532 319.2976 0025680 334.3403  25.6589 15.33649414    06
Epoch (UTC): 15 June 2018 20:08:35
Eccentricity: 0.0025680
inclination: 141.9532°
perigee height: 447 km
apogee height: 482 km
right ascension of ascending node: 319.2976°
argument of perigee: 334.3403°
revolutions per day: 15.33649414
mean anomaly at epoch: 25.6589°
orbit number at epoch: 0

The dashed part of the orbit path shows where the satellite is in the earth's shadow,  

DLR